Flag for Austria Weather past 2 weeks in Bruck an der Leitha, Lower Austria, Austria

Now
57 °F

Heavy rain. Overcast.


Feels Like: 56 °F
Forecast: 56 / 63 °F
Wind: 8 mph from Northwest

Location: Wien / Schwechat-Flughafen

Current Time: Sep 1, 2014 at 1:51:59 PM

Latest Report: Sep 1, 2014 at 1:00 PM


Visibility: 4 mi

Pressure: 29.91 "Hg

Humidity: 96%

Dew point: 56 °F

Location of Bruck an der LeithaLocation

Historic Weather in Bruck an der Leitha — Graph

°F

Bruck an der Leitha temperature yesterday

Maximum temperature yesterday: 68 °F (at 3:00 PM)
Minimum temperature yesterday: 60 °F (at 4:00 AM)
Average temperature yesterday: 63 °F

Past Weeks' High & Low Weather Summary

 TemperatureHumidityPressure
High77 °F (Aug 18, 4:00 PM)99% (Aug 27, 6:00 AM)30.15 "Hg (Aug 27, 6:00 AM)
Low48 °F (Aug 28, 6:00 AM)41% (Aug 28, 6:00 PM)29.72 "Hg (Aug 26, 6:00 PM)
Average62 °F78%29.98 "Hg
* Reported Aug 17 12:00 Noon — Sep 1 12:00 Noon, Bruck an der Leitha, Weather by CustomWeather, © 2014

Note: Actual official high and low records may vary slightly from our data, if they occured in-between our weather recording intervals... More about our weather records

Advertising

Bruck an der Leitha weather history for previous 24 hours

 ConditionsComfort  
Time TempWeatherWind HumidityBarometerVisibility
12:00 PM
Sep 1
57 °FHeavy rain. Overcast.7 mph96%29.90 "Hg3 mi
11:00 AM56 °FHeavy rain. Low clouds.7 mph97%29.89 "Hg3 mi
10:00 AM56 °FHeavy rain. Low clouds.7 mph97%29.89 "Hg4 mi
9:00 AM55 °FHeavy rain. Low clouds.7 mph98%29.88 "Hg3 mi
8:00 AM55 °FHeavy rain. Low clouds.8 mph97%29.88 "Hg2 mi
7:00 AM55 °FHeavy rain. Overcast.8 mph95%29.88 "Hg3 mi
6:00 AM55 °FLight rain. Overcast.7 mph96%29.88 "Hg9 mi
5:00 AM55 °FHeavy rain. Overcast.8 mph95%29.89 "Hg6 mi
4:00 AM56 °FLight rain. Overcast.9 mph92%29.88 "Hg7 mi
3:00 AM56 °FLight rain. Overcast.9 mph90%29.87 "Hg7 mi
2:00 AM57 °FLight rain. Overcast.9 mph83%29.89 "Hg11 mi
1:00 AM59 °FLight rain. Overcast.9 mph86%29.89 "Hg28 mi
12:00 AM60 °FLight rain. Overcast.9 mph88%29.89 "Hg8 mi
11:00 PM
Aug 31
62 °FLight rain. Low clouds.5 mph96%29.88 "Hg4 mi
10:00 PM60 °FLight rain. Low clouds.N/A96%29.88 "Hg7 mi
9:00 PM62 °FLight rain. Low clouds.N/A97%29.89 "Hg6 mi
8:00 PM63 °FLight rain. Overcast.3 mph86%29.88 "Hg19 mi
7:00 PM64 °FHeavy rain. Overcast.N/A90%29.88 "Hg4 mi
6:00 PM66 °FLight rain. Overcast.N/A85%29.88 "Hg5 mi
5:00 PM67 °FOvercast.6 mph84%29.86 "Hg17 mi
4:00 PM68 °FOvercast.7 mph82%29.87 "Hg19 mi
3:00 PM68 °FOvercast.7 mph83%29.90 "Hg16 mi
2:00 PM68 °FOvercast.7 mph81%29.92 "Hg16 mi
1:00 PM66 °FOvercast.7 mph86%29.95 "Hg16 mi
Weather by CustomWeather, © 2014

See weather overviewHow to use our weather pages